CZ-3B DEB, 42474

Orbit data source: Space-Track

CZ-3B DEB, 42474 is space debris in HEO originally from a launch on Mon, 19 Dec 2011 UTC launched from the Xichang Space Center, China (XSC). Debris objects in space refer to the collection of defunct objects orbiting the Earth. Examples of debris include non-operational satellites, rocket bodies, and fragments generated from explosions, collisions, or faulty payload assembly.

Loading next visibility...
CZ-3B DEB details
Identifier
42474, 2011-077AP
Orbit
HEO
Last TLE update1 month ago
Origin
Flag of CNCASC (CN / PRC)
ManufacturerCALT
MissionSpacecraft
Bus & MotorUnknown
MassUnknown
Launch date (UTC)
2011-12-19 (13 years ago)
Launch vehicleUnknown
Launch site
Xichang Space Center, China (XSC)
Object type
Payload
Rocket body
Debris
Shape & HBRUnknown
Radar Cross SectionMedium (>0.1 m² and <1 m²)

Expand to show TLE details & history

TLE from 1 month ago
0 CZ-3B DEB
1 42474U 11077AP  24330.80835446 -.00000049  00000-0  00000-0 0  9991
2 42474  21.1549 195.1557 7254536 247.3703  25.1730  1.66956504 59358
Epoch: 2024-11-25T19:24Z
Definitive object data (Epoch: 2024-11-25T19:24:01.825Z)
Latitude0.00012°
Longitude-160.90117°
Altitude13,391.068 km
Speed5.2 km/s
True Right ascension13h 01m 20s
True Declination0° 00' 00"
Sunlit
Object was in daylight at TLE epoch
Visualization TLE readout
Latitude17.11137°
Longitude-114.2893°
Altitude36,360.607 km
Speed2.318 km/s
Apparent Right ascension16h 35m 19s
Apparent Declination11° 48' 32"
Sunlit
Object is in daylight
Visualization observer readout
Local Sidereal Time10:32:20
Azimuth80.422° E
Elevation6.98°
Doppler factor1
Orbital elements
Apogee altitude45,416.989 km
Perigee altitude1,863.27 km
Semi-major axis30,018.267 km
Eccentricity0.7254536
Inclination21.1549°
RAAN195.1557°
Arg. of periapsis247.3703°
True anomaly112.64056°
Mean anomaly25.173°
Eccentric anomaly61.80724°
Mean motion0.41732 °/min
BSTARUnknown
Orbital period862.66 mins
Loading maneuver chart data...
Loading historical data...
Loading historical data...
Loading historical data...
Loading historical data...
Loading historical data...
Loading historical data...
Loading historical data...

CZ-3B DEB Visibility forecast

Observer location: undefined°, undefined

Span
Click to sort rows by Start time (UTC) header in descending order
Start Az.
Max El. time (UTC)
Max El. Az.
Max El.
End time (UTC)
End Az.
578 mins2024-12-26 11:38:01.979Z81.664° E2024-12-26 19:04:01.979Z129.23° SE39.877°2024-12-26 21:16:01.979Z118.03° SE
|